Los Alamos, NM

9:50 PM MDT on April 24, 2018 (GMT -0600)
Los Alamos

Weather History for KLAM - August, 2014

Change the Weather History Date:

Monday, August 11, 2014

  Actual Average Record
Temperature  
Mean Temperature 66 °F -  
Max Temperature 74 °F 76 °F 87 °F (1956)
Min Temperature 57 °F 53 °F 48 °F (1976)
Growing Degree Days 16 (Base 50)    
Moisture  
Dew Point 46 °F    
Average Humidity 51    
Maximum Humidity 62    
Minimum Humidity 35    
Precipitation  
Precipitation 0.00 in - - ()
Sea Level Pressure  
Sea Level Pressure 30.47 in    
Wind  
Wind Speed 5 mph (SSE)    
Max Wind Speed 16 mph    
Max Gust Speed 22 mph    
Visibility 10 miles    
Events      
Averages and records for this station are not official NWS values.
T = Trace of Precipitation, MM = Missing Value Source: NWS Daily Summary

Daily Weather History Graph

Daily Weather History Graph

Search for Another Location

Airport or City:

Astronomy

Aug. 11, 2014 Rise Set
Actual Time 6:20 AM MDT 7:59 PM MDT
Civil Twilight 5:53 AM MDT 8:26 PM MDT
Nautical Twilight 5:20 AM MDT 8:59 PM MDT
Astronomical Twilight 4:45 AM MDT 9:34 PM MDT
Moon 8:34 PM MDT (8/11) 7:25 AM MDT (8/11)
Length of Visible Light 14h 33m
Length of Day
13h 38m
Full, 98% of the Moon is Illuminated
Aug 11
Full
Aug 17
Last Quarter
Aug 25
New
Sep 2
First Quarter
Sep 8
Full

Hourly Weather History & Observations

Time (MDT) Temp. Dew Point Humidity Pressure Visibility Wind Dir Wind Speed Gust Speed Precip Events Conditions
12:15 AM 62.1 °F 45.7 °F 55% 30.47 in 10.0 mi SW 8.1 mph - N/A   Clear
12:35 AM 62.4 °F 45.5 °F 54% 30.47 in 10.0 mi SW 8.1 mph - N/A   Clear
12:55 AM 62.6 °F 45.0 °F 52% 30.48 in 10.0 mi SSW 5.8 mph - N/A   Scattered Clouds
1:15 AM 62.4 °F 45.1 °F 53% 30.47 in 10.0 mi SSW 8.1 mph - N/A   Clear
1:35 AM 62.1 °F 45.1 °F 54% 30.47 in 10.0 mi SSW 6.9 mph - N/A   Clear
2:15 AM 61.7 °F 44.4 °F 53% 30.46 in 10.0 mi SSW 5.8 mph - N/A   Clear
2:35 AM 61.3 °F 43.9 °F 53% 30.45 in 10.0 mi SW 5.8 mph - N/A   Clear
2:55 AM 59.5 °F 45.0 °F 59% 30.45 in 10.0 mi North 3.5 mph - N/A   Clear
3:15 AM 59.0 °F 45.0 °F 60% 30.45 in 10.0 mi North 3.5 mph - N/A   Clear
3:35 AM 59.4 °F 44.6 °F 58% 30.45 in 10.0 mi Calm Calm - N/A   Clear
3:55 AM 59.0 °F 45.0 °F 60% 30.45 in 10.0 mi Calm Calm - N/A   Clear
4:15 AM 58.3 °F 44.8 °F 61% 30.46 in 10.0 mi Calm Calm - N/A   Clear
4:35 AM 58.5 °F 45.0 °F 61% 30.45 in 10.0 mi Calm Calm - N/A   Clear
4:55 AM 58.1 °F 44.8 °F 61% 30.45 in 10.0 mi Calm Calm - N/A   Clear
5:15 AM 58.5 °F 44.8 °F 60% 30.46 in 10.0 mi Calm Calm - N/A   Clear
5:35 AM 59.0 °F 44.4 °F 58% 30.46 in 10.0 mi Calm Calm - N/A   Clear
5:55 AM 59.0 °F 44.2 °F 58% 30.47 in 10.0 mi Calm Calm - N/A   Clear
6:15 AM 57.4 °F 44.6 °F 62% 30.48 in 10.0 mi North 5.8 mph - N/A   Clear
6:35 AM 57.7 °F 44.6 °F 62% 30.48 in 10.0 mi North 6.9 mph - N/A   Clear
6:55 AM 58.3 °F 44.8 °F 61% 30.49 in 10.0 mi North 6.9 mph - N/A   Clear
7:15 AM 58.8 °F 45.0 °F 60% 30.49 in 10.0 mi North 9.2 mph - N/A   Clear
7:35 AM 59.5 °F 45.3 °F 59% 30.50 in 10.0 mi North 4.6 mph - N/A   Clear
7:55 AM 59.9 °F 45.9 °F 60% 30.50 in 10.0 mi NNE 4.6 mph - N/A   Clear
8:15 AM 60.6 °F 46.2 °F 59% 30.51 in 10.0 mi North 3.5 mph - N/A   Clear
8:35 AM 61.7 °F 46.9 °F 58% 30.52 in 10.0 mi Calm Calm - N/A   Clear
8:55 AM 62.6 °F 47.3 °F 57% 30.51 in 10.0 mi Calm Calm - N/A   Clear
9:15 AM 63.5 °F 46.9 °F 55% 30.51 in 10.0 mi Calm Calm - N/A   Clear
9:35 AM 64.9 °F 47.5 °F 53% 30.51 in 10.0 mi Calm Calm - N/A   Clear
9:55 AM 65.3 °F 47.5 °F 52% 30.52 in 10.0 mi SSE 4.6 mph - N/A   Clear
10:15 AM 65.3 °F 47.7 °F 53% 30.51 in 10.0 mi South 5.8 mph - N/A   Clear
10:35 AM 66.2 °F 48.0 °F 52% 30.52 in 10.0 mi SSE 6.9 mph - N/A   Clear
10:55 AM 66.4 °F 48.4 °F 52% 30.51 in 10.0 mi SE 6.9 mph - N/A   Clear
11:15 AM 67.1 °F 48.2 °F 51% 30.51 in 10.0 mi WSW 3.5 mph - N/A   Clear
11:35 AM 67.6 °F 48.6 °F 50% 30.51 in 10.0 mi SSE 4.6 mph - N/A   Clear
11:55 AM 68.0 °F 48.2 °F 49% 30.50 in 10.0 mi Calm Calm - N/A   Clear
12:15 PM 68.5 °F 48.2 °F 48% 30.50 in 10.0 mi SSW 3.5 mph - N/A   Clear
12:35 PM 69.4 °F 48.6 °F 47% 30.49 in 10.0 mi South 3.5 mph - N/A   Clear
12:55 PM 70.7 °F 47.8 °F 44% 30.48 in 10.0 mi Calm Calm - N/A   Clear
1:15 PM 71.8 °F 46.4 °F 40% 30.47 in 10.0 mi SSE 3.5 mph - N/A   Clear
1:35 PM 73.2 °F 48.4 °F 41% 30.46 in 10.0 mi SSE 6.9 mph - N/A   Clear
2:35 PM 74.5 °F 45.5 °F 36% 30.45 in 10.0 mi South 5.8 mph - N/A   Clear
2:55 PM 74.8 °F 48.7 °F 40% 30.45 in 10.0 mi South 6.9 mph - N/A   Clear
3:15 PM 74.3 °F 47.8 °F 39% 30.45 in 10.0 mi South 8.1 mph - N/A   Clear
3:55 PM 70.2 °F 46.9 °F 43% 30.45 in 10.0 mi ESE 16.1 mph 21.9 mph N/A   Mostly Cloudy
4:15 PM 70.7 °F 45.1 °F 40% 30.44 in 10.0 mi SE 16.1 mph 20.7 mph N/A   Overcast
4:55 PM 71.8 °F 44.1 °F 37% 30.43 in 10.0 mi ESE 9.2 mph - N/A   Clear
5:15 PM 73.2 °F 44.1 °F 35% 30.43 in 10.0 mi SSE 6.9 mph - N/A   Clear
5:35 PM 73.0 °F 45.1 °F 37% 30.43 in 10.0 mi SSE 5.8 mph - N/A   Clear
5:55 PM 73.2 °F 45.7 °F 37% 30.42 in 10.0 mi SE 5.8 mph - N/A   Clear
6:15 PM 73.4 °F 46.0 °F 38% 30.42 in 10.0 mi ESE 6.9 mph - N/A   Clear
6:35 PM 72.9 °F 45.9 °F 38% 30.43 in 10.0 mi South 6.9 mph - N/A   Clear
6:55 PM 72.7 °F 45.5 °F 38% 30.43 in 10.0 mi SE 8.1 mph - N/A   Clear
7:15 PM 71.8 °F 46.6 °F 41% 30.43 in 10.0 mi SE 8.1 mph - N/A   Clear
7:35 PM 70.3 °F 47.3 °F 44% 30.43 in 10.0 mi SSE 6.9 mph - N/A   Clear
7:55 PM 69.4 °F 47.7 °F 46% 30.44 in 10.0 mi SSE 6.9 mph - N/A   Clear